EW9485 Weather Reports


Display with metric or nautical units.
time (UTC)temp
F
wind
direction
speed
MPH
gust
MPH
rain 1hr
in
rain 24hr
in
rain mn
in
humidity
%
barometer
mb
20260902212046 92 219 5.0 12.0 0.00 0.00 0.00 65 1015.1
20260902211603 92 239 4.0 12.0 0.00 0.00 0.00 68 1015.1
20260902211046 91 313 3.0 7.0 0.00 0.00 0.00 69 1015.1
20260902210548 90 286 4.0 7.0 0.00 0.00 0.00 72 1015.1
20260902210059 89 256 3.0 10.0 0.00 0.00 0.00 72 1015.1
20260902205545 89 336 3.0 10.0 0.00 0.00 0.00 70 1015.2
20260902205044 91 309 3.0 9.0 0.00 0.00 0.00 66 1015.3
20260902204557 92 235 0.0 7.0 0.00 0.00 0.00 62 1015.3
20260902204045 93 129 2.0 9.0 0.00 0.00 0.00 56 1015.3
20260902203543 94 94 1.0 9.0 0.00 0.00 0.00 56 1015.2
20260902203055 95 143 4.0 9.0 0.00 0.00 0.00 55 1015.2
20260902202543 95 22 4.0 8.0 0.00 0.00 0.00 51 1015.2
20260902202046 93 78 2.0 8.0 0.00 0.00 0.00 55 1015.3
20260902201604 94 117 2.0 8.0 0.00 0.00 0.00 55 1015.4
20260902201048 94 73 4.0 8.0 0.00 0.00 0.00 53 1015.4
20260902200546 93 52 3.0 8.0 0.00 0.00 0.00 55 1015.3
20260902200057 92 96 1.0 11.0 0.00 0.00 0.00 55 1015.5
20260902195545 93 111 4.0 11.0 0.00 0.00 0.00 58 1015.5
20260902195046 95 119 7.0 11.0 0.00 0.00 0.00 52 1015.6
20260902194600 94 67 4.0 11.0 0.00 0.00 0.00 53 1015.7
20260902194044 94 134 3.0 8.0 0.00 0.00 0.00 57 1015.8
20260902193546 94 120 5.0 10.0 0.00 0.00 0.00 55 1015.9
20260902193100 94 119 3.0 10.0 0.00 0.00 0.00 54 1015.9
20260902192545 94 106 5.0 11.0 0.00 0.00 0.00 49 1016.0
20260902192046 95 31 5.0 11.0 0.00 0.00 0.00 58 1016.0
20260902191556 94 96 4.0 11.0 0.00 0.00 0.00 53 1016.1
20260902191045 94 114 4.0 8.0 0.00 0.00 0.00 55 1016.2
20260902190545 93 113 3.0 10.0 0.00 0.00 0.00 54 1016.2
20260902190057 94 101 5.0 10.0 0.00 0.00 0.00 56 1016.2
20260902185549 94 38 6.0 10.0 0.00 0.00 0.00 56 1016.3
20260902185046 93 46 5.0 9.0 0.00 0.00 0.00 55 1016.4
20260902184559 93 52 4.0 11.0 0.00 0.00 0.00 61 1016.5
20260902184043 92 81 4.0 12.0 0.00 0.00 0.00 58 1016.5
20260902183545 92 53 5.0 12.0 0.00 0.00 0.00 58 1016.6
20260902183100 93 13 7.0 12.0 0.00 0.00 0.00 56 1016.7
20260902182546 94 65 4.0 11.0 0.00 0.00 0.00 58 1016.7
20260902182047 94 338 4.0 12.0 0.00 0.00 0.00 57 1016.8
20260902181556 94 51 5.0 12.0 0.00 0.00 0.00 57 1016.8
20260902181044 94 102 6.0 12.0 0.00 0.00 0.00 63 1016.8
20260902180547 94 27 6.0 11.0 0.00 0.00 0.00 59 1016.9
20260902175546 93 45 4.0 12.0 0.00 0.00 0.00 59 1016.8
20260902175044 94 59 4.0 13.0 0.00 0.00 0.00 60 1016.7
20260902174604 93 137 7.0 13.0 0.00 0.00 0.00 58 1016.8
20260902174044 93 123 6.0 13.0 0.00 0.00 0.00 63 1016.9
20260902173544 92 57 5.0 14.0 0.00 0.00 0.00 58 1017.0
20260902173056 93 103 6.0 14.0 0.00 0.00 0.00 58 1017.1
20260902172546 93 148 6.0 14.0 0.00 0.00 0.00 59 1017.3
20260902172049 93 86 3.0 14.0 0.00 0.00 0.00 59 1017.4
20260902171606 93 75 6.0 13.0 0.00 0.00 0.00 57 1017.4
20260902171046 93 123 5.0 13.0 0.00 0.00 0.00 59 1017.4
20260902170546 92 90 5.0 13.0 0.00 0.00 0.00 62 1017.5
20260902170059 92 94 8.0 13.0 0.00 0.00 0.00 59 1017.6
20260902165546 93 74 4.0 10.0 0.00 0.00 0.00 59 1017.5
20260902165046 92 41 5.0 11.0 0.00 0.00 0.00 62 1017.5
20260902164558 92 67 4.0 12.0 0.00 0.00 0.00 63 1017.6
20260902164043 92 59 5.0 12.0 0.00 0.00 0.00 62 1017.7
20260902163546 93 97 4.0 12.0 0.00 0.00 0.00 58 1017.7
20260902163104 92 115 6.0 12.0 0.00 0.00 0.00 60 1017.8
20260902162546 91 140 5.0 10.0 0.00 0.00 0.00 62 1017.9
20260902162046 91 49 3.0 9.0 0.00 0.00 0.00 65 1018.0
20260902161601 91 86 2.0 10.0 0.00 0.00 0.00 63 1018.0
20260902161045 90 80 4.0 11.0 0.00 0.00 0.00 66 1017.9
20260902160545 91 42 5.0 12.0 0.00 0.00 0.00 64 1018.0
20260902160107 91 65 6.0 12.0 0.00 0.00 0.00 64 1018.0
20260902155543 91 99 5.0 10.0 0.00 0.00 0.00 68 1018.1
20260902155045 91 67 4.0 10.0 0.00 0.00 0.00 67 1018.1
20260902154559 90 72 5.0 10.0 0.00 0.00 0.00 65 1018.2
20260902154044 90 43 6.0 10.0 0.00 0.00 0.00 65 1018.2
20260902153549 89 65 4.0 10.0 0.00 0.00 0.00 68 1018.2
20260902153100 89 130 5.0 10.0 0.00 0.00 0.00 66 1018.2
20260902152543 90 99 3.0 10.0 0.00 0.00 0.00 67 1018.3
20260902152045 89 43 5.0 10.0 0.00 0.00 0.00 69 1018.2
20260902151603 89 24 5.0 10.0 0.00 0.00 0.00 68 1018.3
20260902151046 89 99 6.0 10.0 0.00 0.00 0.00 67 1018.2
20260902150542 89 90 5.0 10.0 0.00 0.00 0.00 68 1018.2
20260902150056 88 84 5.0 11.0 0.00 0.00 0.00 69 1018.1
20260902145545 88 53 4.0 11.0 0.00 0.00 0.00 68 1018.0
20260902145044 87 65 5.0 11.0 0.00 0.00 0.00 73 1018.1
20260902144551 87 58 4.0 9.0 0.00 0.00 0.00 73 1018.1
20260902144046 87 88 4.0 9.0 0.00 0.00 0.00 71 1018.0
20260902143545 87 64 3.0 9.0 0.00 0.00 0.00 72 1017.9
20260902143055 87 82 5.0 9.0 0.00 0.00 0.00 72 1018.0
20260902142546 87 77 3.0 9.0 0.00 0.00 0.00 73 1018.0
20260902142047 86 71 4.0 9.0 0.00 0.00 0.00 74 1018.1
20260902141554 86 76 5.0 9.0 0.00 0.00 0.00 78 1018.1
20260902141049 85 51 4.0 9.0 0.00 0.00 0.00 74 1018.1
20260902140617 85 44 4.0 9.0 0.00 0.00 0.00 75 1018.1
20260902140101 86 350 2.0 9.0 0.00 0.00 0.00 76 1018.0
20260902135546 85 11 3.0 9.0 0.00 0.00 0.00 77 1018.1
20260902135046 85 81 4.0 8.0 0.00 0.00 0.00 77 1018.2
20260902134610 85 69 3.0 8.0 0.00 0.00 0.00 77 1018.1
20260902134045 84 54 4.0 8.0 0.00 0.00 0.00 78 1018.2
20260902133546 84 80 3.0 7.0 0.00 0.00 0.00 78 1018.2
20260902133102 84 71 3.0 8.0 0.00 0.00 0.00 79 1018.1
20260902132545 84 27 3.0 8.0 0.00 0.00 0.00 79 1018.2
20260902132046 83 72 2.0 9.0 0.00 0.00 0.00 80 1018.0
20260902131606 83 78 5.0 9.0 0.00 0.00 0.00 80 1018.0
20260902131044 82 64 5.0 9.0 0.00 0.00 0.00 80 1018.0
20260902130544 82 91 5.0 9.0 0.00 0.00 0.00 80 1018.1
20260902130100 82 86 2.0 6.0 0.00 0.00 0.00 81 1018.0
20260902125549 82 68 3.0 7.0 0.00 0.00 0.00 81 1018.1
20260902125046 82 69 3.0 8.0 0.00 0.00 0.00 82 1018.1
20260902124556 81 54 2.0 8.0 0.00 0.00 0.00 82 1018.1
20260902124045 81 84 3.0 8.0 0.00 0.00 0.00 83 1018.0
20260902123546 80 67 2.0 8.0 0.00 0.00 0.00 84 1018.1
20260902123055 80 73 3.0 8.0 0.00 0.00 0.00 84 1018.0
20260902122546 79 76 1.0 5.0 0.00 0.00 0.00 86 1018.1
20260902122045 79 66 2.0 5.0 0.00 0.00 0.00 86 1017.9
20260902121600 78 60 1.0 4.0 0.00 0.00 0.00 87 1018.0
20260902121046 78 62 1.0 3.0 0.00 0.00 0.00 87 1018.1
20260902120547 77 62 1.0 3.0 0.00 0.00 0.00 88 1018.0
20260902120054 77 62 1.0 3.0 0.00 0.00 0.00 88 1018.0
20260902115546 76 62 1.0 4.0 0.00 0.00 0.00 88 1017.9
20260902115046 76 62 1.0 4.0 0.00 0.00 0.00 88 1017.9
20260902114554 76 62 1.0 4.0 0.00 0.00 0.00 88 1017.9
20260902114044 76 61 1.0 3.0 0.00 0.00 0.00 88 1017.9
20260902113545 76 61 1.0 4.0 0.00 0.00 0.00 88 1017.8
20260902113052 76 61 1.0 5.0 0.00 0.00 0.00 88 1017.7
20260902112544 76 60 2.0 5.0 0.00 0.00 0.00 88 1017.7
20260902112046 76 52 1.0 4.0 0.00 0.00 0.00 88 1017.6
20260902111556 76 54 1.0 4.0 0.00 0.00 0.00 88 1017.6
20260902111047 76 54 2.0 4.0 0.00 0.00 0.00 88 1017.5
20260902110547 76 55 1.0 3.0 0.00 0.00 0.00 88 1017.4
20260902110101 76 55 1.0 3.0 0.00 0.00 0.00 87 1017.4
20260902105546 76 55 2.0 3.0 0.00 0.00 0.00 87 1017.4
20260902105046 77 55 1.0 4.0 0.00 0.00 0.00 87 1017.4
20260902104615 77 55 2.0 4.0 0.00 0.00 0.00 87 1017.4
20260902104048 77 54 1.0 3.0 0.00 0.00 0.00 87 1017.3
20260902103544 77 54 1.0 3.0 0.00 0.00 0.00 87 1017.2
20260902103101 77 54 1.0 3.0 0.00 0.00 0.00 87 1017.1
20260902102545 77 54 1.0 3.0 0.00 0.00 0.00 87 1017.2
20260902102050 77 54 1.0 4.0 0.00 0.00 0.00 87 1017.1
20260902101558 77 54 1.0 4.0 0.00 0.00 0.00 87 1017.1
20260902101045 77 53 2.0 4.0 0.00 0.00 0.00 87 1017.1
20260902100547 77 55 1.0 3.0 0.00 0.00 0.00 87 1017.2
20260902100119 77 55 1.0 4.0 0.00 0.00 0.00 87 1017.2
20260902095549 77 55 2.0 4.0 0.00 0.00 0.00 87 1017.2
20260902095046 77 54 2.0 4.0 0.00 0.00 0.00 87 1017.0
20260902094606 77 49 1.0 3.0 0.00 0.00 0.00 87 1017.1
20260902094045 77 49 2.0 3.0 0.00 0.00 0.00 87 1016.9
20260902093545 77 52 2.0 4.0 0.00 0.00 0.00 87 1016.8
20260902093115 77 53 2.0 4.0 0.00 0.00 0.00 87 1016.8
20260902092546 77 53 1.0 4.0 0.00 0.00 0.00 87 1016.7
20260902092046 77 51 2.0 4.0 0.00 0.00 0.00 88 1016.6
20260902091624 77 53 1.0 4.0 0.00 0.00 0.00 88 1016.7
20260902091048 77 52 1.0 4.0 0.00 0.00 0.00 88 1016.5
20260902090545 77 52 2.0 4.0 0.00 0.00 0.00 88 1016.5
20260902090106 77 51 1.0 3.0 0.00 0.00 0.00 88 1016.5
20260902085545 77 51 1.0 3.0 0.00 0.00 0.00 88 1016.7
20260902085046 77 51 1.0 4.0 0.00 0.00 0.00 87 1016.6
20260902084608 77 51 1.0 4.0 0.00 0.00 0.00 87 1016.5
20260902084043 77 57 2.0 4.0 0.00 0.00 0.00 87 1016.5
20260902083546 77 68 2.0 4.0 0.00 0.00 0.00 87 1016.4
20260902083106 77 92 1.0 4.0 0.00 0.00 0.00 87 1016.5
20260902082546 77 92 1.0 3.0 0.00 0.00 0.00 87 1016.4
20260902082047 77 92 1.0 3.0 0.00 0.00 0.00 87 1016.4
20260902081612 77 92 1.0 3.0 0.00 0.00 0.00 87 1016.5
20260902081045 77 110 1.0 3.0 0.00 0.00 0.00 87 1016.4
20260902080548 77 110 1.0 3.0 0.00 0.00 0.00 87 1016.5
20260902080107 77 110 1.0 3.0 0.00 0.00 0.00 87 1016.5
20260902075546 77 110 2.0 3.0 0.00 0.00 0.00 87 1016.4
20260902075043 77 113 2.0 3.0 0.00 0.00 0.00 87 1016.5
20260902074556 77 121 1.0 3.0 0.00 0.00 0.00 87 1016.5
20260902074045 77 121 1.0 3.0 0.00 0.00 0.00 87 1016.4
20260902073545 78 121 1.0 3.0 0.00 0.00 0.00 87 1016.5
20260902073101 78 121 1.0 3.0 0.00 0.00 0.00 87 1016.5
20260902072546 78 121 2.0 3.0 0.00 0.00 0.00 87 1016.5
20260902072049 78 121 1.0 3.0 0.00 0.00 0.00 87 1016.5
20260902071622 78 121 1.0 3.0 0.00 0.00 0.00 87 1016.5
20260902071048 78 121 1.0 3.0 0.00 0.00 0.00 87 1016.4
20260902070547 78 121 0.0 2.0 0.00 0.00 0.00 87 1016.5
20260902070100 78 121 1.0 2.0 0.00 0.00 0.00 87 1016.6
20260902065546 78 121 0.0 3.0 0.00 0.00 0.00 87 1016.5
20260902065050 78 121 1.0 3.0 0.00 0.00 0.00 87 1016.6
20260902064604 78 121 1.0 3.0 0.00 0.00 0.00 87 1016.6
20260902064045 78 0 0.0 2.0 0.00 0.00 0.00 87 1016.7
20260902063543 78 121 0.0 2.0 0.00 0.00 0.00 87 1016.6
20260902063112 78 0 1.0 2.0 0.00 0.00 0.00 87 1016.7
20260902062545 78 121 1.0 2.0 0.00 0.00 0.00 86 1016.6
20260902062044 78 121 1.0 3.0 0.00 0.00 0.00 86 1016.5
20260902061559 78 121 1.0 3.0 0.00 0.00 0.00 86 1016.6
20260902061046 78 121 1.0 3.0 0.00 0.00 0.00 86 1016.7
20260902060543 78 121 1.0 3.0 0.00 0.00 0.00 86 1016.8
20260902060126 78 121 0.0 3.0 0.00 0.00 0.00 86 1016.7
20260902055542 79 121 1.0 3.0 0.00 0.00 0.00 86 1016.8
20260902055045 79 121 1.0 3.0 0.00 0.00 0.00 86 1016.7
20260902054554 79 121 1.0 3.0 0.00 0.00 0.00 86 1016.7
20260902054048 79 121 1.0 3.0 0.00 0.00 0.00 86 1016.7
20260902053547 79 121 1.0 3.0 0.00 0.00 0.00 86 1016.9
20260902053057 79 0 1.0 3.0 0.00 0.00 0.00 86 1016.9
20260902052543 79 121 1.0 3.0 0.00 0.00 0.00 86 1016.9
20260902052044 79 121 1.0 3.0 0.00 0.00 0.00 86 1017.0
20260902051604 79 121 1.0 3.0 0.00 0.00 0.00 86 1017.0
20260902051042 79 121 1.0 3.0 0.00 0.00 0.00 86 1017.0
20260902050547 79 121 1.0 3.0 0.00 0.00 0.00 86 1017.0
20260902050055 79 0 0.0 3.0 0.00 0.00 0.00 86 1017.1
20260902045548 79 0 0.0 3.0 0.00 0.00 0.00 86 1017.2
20260902045044 80 0 1.0 4.0 0.00 0.00 0.00 86 1017.1
20260902044601 80 121 2.0 4.0 0.00 0.00 0.00 86 1017.2
20260902044044 80 121 1.0 3.0 0.00 0.00 0.00 86 1017.2
20260902043545 80 121 1.0 3.0 0.00 0.00 0.00 86 1017.2
20260902043109 80 121 1.0 2.0 0.00 0.00 0.00 86 1017.3
20260902042545 80 0 1.0 2.0 0.00 0.00 0.00 86 1017.3
20260902042045 80 121 1.0 4.0 0.00 0.00 0.00 86 1017.2
20260902041605 80 121 1.0 4.0 0.00 0.00 0.00 86 1017.2
20260902041044 80 121 2.0 5.0 0.00 0.00 0.00 86 1017.3
20260902040546 80 124 2.0 5.0 0.00 0.00 0.00 86 1017.4
20260902040107 80 167 3.0 5.0 0.00 0.00 0.00 87 1017.3
20260902035546 80 202 1.0 2.0 0.00 0.00 0.00 86 1017.3
20260902035046 80 0 0.0 0.0 0.00 0.00 0.00 86 1017.3
20260902034601 80 0 0.0 0.0 0.00 0.00 0.00 86 1017.3
20260902034043 80 0 0.0 1.0 0.00 0.00 0.00 86 1017.2
20260902033546 80 0 0.0 2.0 0.00 0.00 0.00 86 1017.1
20260902033102 80 0 0.0 2.0 0.00 0.00 0.00 86 1017.2
20260902032544 80 202 1.0 2.0 0.00 0.00 0.00 86 1017.3
20260902032046 80 201 1.0 2.0 0.00 0.00 0.00 86 1017.4
20260902031556 80 201 1.0 2.0 0.00 0.00 0.00 86 1017.4
20260902031046 80 173 0.0 1.0 0.00 0.00 0.00 85 1017.5
20260902030548 80 0 0.0 0.0 0.00 0.00 0.00 85 1017.5
20260902025546 80 0 0.0 2.0 0.00 0.00 0.00 85 1017.4
20260902025046 80 170 1.0 2.0 0.00 0.00 0.00 85 1017.3
20260902024608 80 0 0.0 1.0 0.00 0.00 0.00 85 1017.4
20260902024046 80 170 0.0 2.0 0.00 0.00 0.00 85 1017.5
20260902023542 80 0 0.0 2.0 0.00 0.00 0.00 85 1017.5
20260902023058 80 170 0.0 2.0 0.00 0.00 0.00 85 1017.4
20260902022546 80 0 0.0 1.0 0.00 0.00 0.00 84 1017.4
20260902022046 81 0 0.0 2.0 0.00 0.00 0.00 84 1017.4
20260902021602 81 170 0.0 2.0 0.00 0.00 0.00 83 1017.3
20260902021047 81 170 0.0 2.0 0.00 0.00 0.00 83 1017.3
20260902020546 81 170 0.0 1.0 0.00 0.00 0.00 83 1017.3
20260902020114 81 0 0.0 1.0 0.00 0.00 0.00 83 1017.3
20260902015545 81 170 0.0 2.0 0.00 0.00 0.00 83 1017.2
20260902015046 81 0 0.0 2.0 0.00 0.00 0.00 83 1017.1
20260902014603 81 0 0.0 2.0 0.00 0.00 0.00 83 1017.1
20260902014043 81 0 0.0 1.0 0.00 0.00 0.00 83 1017.1
20260902013547 81 0 0.0 2.0 0.00 0.00 0.00 82 1017.0
20260902013054 81 0 0.0 2.0 0.00 0.00 0.00 82 1017.0
20260902012546 82 170 0.0 2.0 0.00 0.00 0.00 82 1016.8
20260902012044 82 0 0.0 2.0 0.00 0.00 0.00 82 1016.8
20260902011551 82 0 0.0 2.0 0.00 0.00 0.00 82 1016.7
20260902011047 82 170 0.0 2.0 0.00 0.00 0.00 82 1016.6
20260902010543 82 169 0.0 2.0 0.00 0.00 0.00 82 1016.6
20260902010058 82 0 0.0 2.0 0.00 0.00 0.00 82 1016.6
20260902005550 82 169 0.0 2.0 0.00 0.00 0.00 82 1016.4
20260902005045 82 0 0.0 2.0 0.00 0.00 0.00 81 1016.4
20260902004556 82 0 0.0 2.0 0.00 0.00 0.00 81 1016.3
20260902004047 83 169 1.0 2.0 0.00 0.00 0.00 81 1016.4
20260902003547 83 169 0.0 4.0 0.00 0.00 0.00 80 1016.3
20260902003105 83 169 1.0 5.0 0.00 0.00 0.00 80 1016.2
20260902002543 83 0 1.0 5.0 0.00 0.00 0.00 79 1016.2
20260902002046 83 0 1.0 5.0 0.00 0.00 0.00 79 1016.2
20260902001558 83 159 1.0 4.0 0.00 0.00 0.00 79 1016.3
20260902001048 83 159 1.0 4.0 0.00 0.00 0.00 79 1016.3
20260902000546 84 159 1.0 6.0 0.00 0.00 0.00 78 1016.3
20260902000056 84 157 1.0 6.0 0.00 0.00 0.00 78 1016.2
20260901235547 84 186 1.0 7.0 0.00 0.00 0.00 77 1016.2
20260901235047 84 186 3.0 7.0 0.00 0.00 0.00 77 1016.3
20260901234606 84 189 3.0 7.0 0.00 0.00 0.00 77 1016.2
20260901234047 84 186 4.0 8.0 0.00 0.00 0.00 76 1016.2
20260901233546 85 190 3.0 8.0 0.00 0.00 0.00 76 1016.3
20260901233107 85 184 3.0 8.0 0.00 0.00 0.00 75 1016.3
20260901232547 85 189 2.0 8.0 0.00 0.00 0.00 75 1016.3
20260901232048 86 186 2.0 8.0 0.00 0.00 0.00 73 1016.4
20260901231606 86 199 4.0 9.0 0.00 0.00 0.00 74 1016.4
20260901231044 86 180 4.0 9.0 0.00 0.00 0.00 73 1016.3
20260901230546 86 166 3.0 8.0 0.00 0.00 0.00 74 1016.1
20260901230106 87 152 2.0 9.0 0.00 0.00 0.00 73 1016.2
20260901225546 86 193 3.0 9.0 0.00 0.00 0.00 75 1016.1
20260901225046 86 172 5.0 9.0 0.00 0.00 0.00 74 1016.1
20260901224600 87 168 4.0 9.0 0.00 0.00 0.00 75 1016.2
20260901224045 87 159 3.0 8.0 0.00 0.00 0.00 75 1016.2
20260901223545 87 167 2.0 7.0 0.00 0.00 0.00 74 1016.2
20260901223101 87 223 4.0 10.0 0.00 0.00 0.00 74 1016.2
20260901222544 87 190 4.0 12.0 0.00 0.00 0.00 74 1016.3
20260901222044 87 193 6.0 12.0 0.00 0.00 0.00 74 1016.1
20260901221612 87 148 6.0 10.0 0.00 0.00 0.00 74 1016.1
20260901221044 86 204 6.0 10.0 0.00 0.00 0.00 75 1016.0
20260901220546 86 192 4.0 13.0 0.00 0.00 0.00 76 1016.0
20260901220106 86 197 5.0 14.0 0.00 0.00 0.00 76 1016.1
20260901215546 86 152 6.0 14.0 0.00 0.00 0.00 76 1016.1
20260901215046 85 175 6.0 12.0 0.00 0.00 0.00 77 1015.9
20260901214556 85 156 6.0 11.0 0.00 0.00 0.00 76 1016.1
20260901214044 86 157 5.0 14.0 0.00 0.00 0.00 75 1016.0
20260901213545 87 128 6.0 19.0 0.00 0.00 0.00 73 1016.0
20260901213104 87 176 9.0 19.0 0.00 0.00 0.00 74 1016.0
20260901212546 86 176 7.0 18.0 0.00 0.00 0.00 75 1016.0